Time,TemperatureF,DewpointF,PressureIn,WindDirection,WindDirectionDegrees,WindSpeedMPH,WindSpeedGustMPH,Humidity,HourlyPrecipIn,Conditions,Clouds,dailyrainin,SoftwareType,DateUTC
2013-02-08 00:00:00,15.5,0.2,30.38,NNE,23,0.0,0.0,50,0.00,,,0.00,WUHU216HW,2013-02-08 05:00:00,
2013-02-08 00:01:00,15.5,0.2,30.38,NNE,23,0.0,0.0,50,0.00,,,0.00,WUHU216HW,2013-02-08 05:01:00,
2013-02-08 00:06:00,15.5,0.2,30.38,NNE,23,0.4,0.4,50,0.00,,,0.00,WUHU216HW,2013-02-08 05:06:00,
2013-02-08 00:11:00,15.5,0.2,30.38,NNE,23,0.0,0.4,50,0.00,,,0.00,WUHU216HW,2013-02-08 05:11:00,
2013-02-08 00:16:00,15.5,-0.3,30.38,NNE,23,0.4,0.4,49,0.00,,,0.00,WUHU216HW,2013-02-08 05:16:00,
2013-02-08 00:21:00,15.5,0.2,30.38,NNE,23,0.0,0.4,50,0.00,,,0.00,WUHU216HW,2013-02-08 05:21:00,
2013-02-08 00:26:00,15.5,0.2,30.37,NNE,23,0.3,0.4,50,0.00,,,0.00,WUHU216HW,2013-02-08 05:26:00,
2013-02-08 00:31:00,15.5,0.2,30.37,NNE,23,0.4,0.7,50,0.00,,,0.00,WUHU216HW,2013-02-08 05:31:00,
2013-02-08 00:36:00,15.5,0.5,30.37,NNE,23,0.4,0.7,51,0.00,,,0.00,WUHU216HW,2013-02-08 05:36:00,
2013-02-08 00:41:00,15.5,0.5,30.37,NNE,23,0.3,0.7,51,0.00,,,0.00,WUHU216HW,2013-02-08 05:41:00,
2013-02-08 00:46:00,15.5,0.5,30.37,NNE,23,0.4,0.7,51,0.00,,,0.00,WUHU216HW,2013-02-08 05:46:00,
2013-02-08 00:51:00,15.5,0.5,30.36,NNE,23,0.4,0.4,51,0.00,,,0.00,WUHU216HW,2013-02-08 05:51:00,
2013-02-08 00:56:00,15.5,0.5,30.36,NNE,23,1.1,1.1,51,0.00,,,0.00,WUHU216HW,2013-02-08 05:56:00,
2013-02-08 01:01:00,15.5,0.5,30.36,NNE,23,0.5,1.1,51,0.00,,,0.00,WUHU216HW,2013-02-08 06:01:00,
2013-02-08 01:06:00,15.5,0.5,30.36,NNE,23,0.4,1.1,51,0.00,,,0.00,WUHU216HW,2013-02-08 06:06:00,
2013-02-08 01:11:00,15.5,0.5,30.37,NNE,23,0.3,0.4,51,0.00,,,0.00,WUHU216HW,2013-02-08 06:11:00,
2013-02-08 01:16:00,15.5,0.5,30.36,NNE,23,0.4,0.4,51,0.00,,,0.00,WUHU216HW,2013-02-08 06:16:00,
2013-02-08 01:21:00,15.5,0.5,30.36,NNE,23,0.4,0.4,51,0.00,,,0.00,WUHU216HW,2013-02-08 06:21:00,
2013-02-08 01:26:00,15.7,0.7,30.36,NNE,23,0.0,0.4,51,0.00,,,0.00,WUHU216HW,2013-02-08 06:26:00,
2013-02-08 01:31:00,15.8,0.9,30.36,NNE,23,0.4,0.4,51,0.00,,,0.00,WUHU216HW,2013-02-08 06:31:00,
2013-02-08 01:36:00,15.8,0.9,30.36,NNE,23,0.2,0.4,51,0.00,,,0.00,WUHU216HW,2013-02-08 06:36:00,
2013-02-08 01:41:00,15.8,0.9,30.36,NNE,23,0.4,0.4,51,0.00,,,0.00,WUHU216HW,2013-02-08 06:41:00,
2013-02-08 01:46:00,15.8,0.5,30.35,NNE,23,0.3,0.4,50,0.00,,,0.00,WUHU216HW,2013-02-08 06:46:00,
2013-02-08 01:51:00,16.0,1.1,30.35,NNE,23,0.2,0.4,51,0.00,,,0.00,WUHU216HW,2013-02-08 06:51:00,
2013-02-08 01:56:00,16.0,1.1,30.35,NNE,23,0.4,0.4,51,0.00,,,0.00,WUHU216HW,2013-02-08 06:56:00,
2013-02-08 02:01:00,16.2,1.3,30.35,NE,45,0.4,0.4,51,0.00,,,0.00,WUHU216HW,2013-02-08 07:01:00,
2013-02-08 02:06:00,16.4,1.0,30.35,NE,45,0.4,0.7,50,0.00,,,0.00,WUHU216HW,2013-02-08 07:06:00,
2013-02-08 02:11:00,16.4,1.0,30.35,NE,45,0.4,0.7,50,0.00,,,0.00,WUHU216HW,2013-02-08 07:11:00,
2013-02-08 02:16:00,16.4,1.0,30.34,NE,45,0.3,0.4,50,0.00,,,0.00,WUHU216HW,2013-02-08 07:16:00,
2013-02-08 02:21:00,16.4,1.0,30.34,NE,45,0.0,0.4,50,0.00,,,0.00,WUHU216HW,2013-02-08 07:21:00,
2013-02-08 02:26:00,16.4,1.0,30.34,NE,45,0.3,0.4,50,0.00,,,0.00,WUHU216HW,2013-02-08 07:26:00,
2013-02-08 02:31:00,16.4,1.0,30.34,NE,45,0.0,0.4,50,0.00,,,0.00,WUHU216HW,2013-02-08 07:31:00,
2013-02-08 02:36:00,16.6,1.2,30.34,NE,45,0.4,0.4,50,0.00,,,0.00,WUHU216HW,2013-02-08 07:36:00,
2013-02-08 02:41:00,16.6,1.2,30.33,NE,45,0.2,0.4,50,0.00,,,0.00,WUHU216HW,2013-02-08 07:41:00,
2013-02-08 02:46:00,16.7,0.9,30.33,ESE,113,0.3,0.7,49,0.00,,,0.00,WUHU216HW,2013-02-08 07:46:00,
2013-02-08 02:51:00,16.7,0.9,30.33,ESE,113,0.0,0.7,49,0.00,,,0.00,WUHU216HW,2013-02-08 07:51:00,
2013-02-08 02:56:00,16.7,0.4,30.33,ESE,113,0.0,0.0,48,0.00,,,0.00,WUHU216HW,2013-02-08 07:56:00,
2013-02-08 03:01:00,16.9,1.1,30.33,ESE,113,0.0,0.4,49,0.00,,,0.00,WUHU216HW,2013-02-08 08:01:00,
2013-02-08 03:06:00,16.9,0.5,30.33,ESE,113,0.4,0.9,48,0.00,,,0.00,WUHU216HW,2013-02-08 08:06:00,
2013-02-08 03:11:00,17.1,1.2,30.32,ESE,113,0.2,0.9,49,0.00,,,0.00,WUHU216HW,2013-02-08 08:11:00,
2013-02-08 03:16:00,17.3,1.8,30.32,SE,135,1.1,1.1,50,0.00,,,0.00,WUHU216HW,2013-02-08 08:16:00,
2013-02-08 03:21:00,17.3,2.6,30.31,ESE,120,1.5,1.8,52,0.00,,,0.00,WUHU216HW,2013-02-08 08:21:00,
2013-02-08 03:26:00,17.1,2.4,30.31,SE,135,0.4,1.8,52,0.00,,,0.00,WUHU216HW,2013-02-08 08:26:00,
2013-02-08 03:31:00,17.1,2.4,30.31,SE,135,0.4,1.1,52,0.00,,,0.00,WUHU216HW,2013-02-08 08:31:00,
2013-02-08 03:36:00,16.9,2.7,30.30,NNW,335,0.4,0.7,53,0.00,,,0.00,WUHU216HW,2013-02-08 08:36:00,
2013-02-08 03:41:00,16.9,3.1,30.30,ESE,112,1.0,1.8,54,0.00,,,0.00,WUHU216HW,2013-02-08 08:41:00,
2013-02-08 03:46:00,16.9,3.4,30.30,ESE,113,0.2,1.8,55,0.00,,,0.00,WUHU216HW,2013-02-08 08:46:00,
2013-02-08 03:51:00,16.9,3.4,30.30,ESE,113,0.2,0.9,55,0.00,,,0.00,WUHU216HW,2013-02-08 08:51:00,
2013-02-08 07:01:00,15.7,9.7,30.26,NNE,23,0.4,0.4,77,0.00,,,0.00,WUHU216HW,2013-02-08 12:01:00,
2013-02-08 07:06:00,15.7,9.7,30.26,NE,45,0.4,0.4,77,0.00,,,0.00,WUHU216HW,2013-02-08 12:06:00,
2013-02-08 07:12:00,15.7,10.0,30.26,NE,45,0.6,0.9,78,0.00,,,0.00,WUHU216HW,2013-02-08 12:12:00,
2013-02-08 07:17:00,15.7,10.0,30.26,NE,45,0.7,1.1,78,0.00,,,0.00,WUHU216HW,2013-02-08 12:17:00,
2013-02-08 07:22:00,15.7,10.4,30.26,NE,45,0.7,1.1,79,0.00,,,0.00,WUHU216HW,2013-02-08 12:22:00,
2013-02-08 07:27:00,15.7,10.6,30.26,NE,45,0.7,0.9,80,0.00,,,0.00,WUHU216HW,2013-02-08 12:27:00,
2013-02-08 07:32:00,15.7,10.4,30.27,NE,45,0.6,0.9,79,0.00,,,0.00,WUHU216HW,2013-02-08 12:32:00,
2013-02-08 07:37:00,15.7,10.4,30.26,NE,45,0.4,0.9,79,0.00,,,0.00,WUHU216HW,2013-02-08 12:37:00,
2013-02-08 07:42:00,15.8,10.8,30.27,NE,45,0.3,0.9,80,0.00,,,0.00,WUHU216HW,2013-02-08 12:42:00,
2013-02-08 07:47:00,15.8,10.5,30.27,NE,45,0.4,0.4,79,0.00,,,0.00,WUHU216HW,2013-02-08 12:47:00,
2013-02-08 07:52:00,16.0,10.6,30.26,NE,45,0.4,0.9,79,0.00,,,0.00,WUHU216HW,2013-02-08 12:52:00,
2013-02-08 07:57:00,16.0,10.6,30.26,NE,45,0.4,1.1,79,0.00,,,0.00,WUHU216HW,2013-02-08 12:57:00,
2013-02-08 08:02:00,16.0,11.3,30.26,NE,45,0.2,1.1,81,0.00,,,0.00,WUHU216HW,2013-02-08 13:02:00,
2013-02-08 08:07:00,16.2,10.8,30.26,NE,45,0.4,0.7,79,0.00,,,0.00,WUHU216HW,2013-02-08 13:07:00,
2013-02-08 08:12:00,16.2,10.8,30.26,ENE,68,0.4,0.7,79,0.00,,,0.00,WUHU216HW,2013-02-08 13:12:00,
2013-02-08 08:17:00,16.2,10.8,30.26,ENE,68,0.2,0.7,79,0.00,,,0.00,WUHU216HW,2013-02-08 13:17:00,
2013-02-08 08:22:00,16.4,11.3,30.26,ENE,68,0.3,0.7,80,0.00,,,0.00,WUHU216HW,2013-02-08 13:22:00,
2013-02-08 08:27:00,16.4,11.0,30.26,ESE,113,1.2,1.3,79,0.00,,,0.00,WUHU216HW,2013-02-08 13:27:00,
2013-02-08 08:32:00,16.2,10.8,30.26,ESE,113,0.4,1.3,79,0.00,,,0.00,WUHU216HW,2013-02-08 13:32:00,
2013-02-08 08:37:00,16.2,10.8,30.25,ESE,113,0.4,0.9,79,0.00,,,0.00,WUHU216HW,2013-02-08 13:37:00,
2013-02-08 08:42:00,16.2,11.2,30.25,ESE,113,0.3,0.9,80,0.00,,,0.00,WUHU216HW,2013-02-08 13:42:00,
2013-02-08 08:47:00,16.0,10.6,30.25,East,90,0.7,0.7,79,0.00,,,0.00,WUHU216HW,2013-02-08 13:47:00,
2013-02-08 08:52:00,16.0,10.6,30.25,East,90,0.7,0.7,79,0.00,,,0.00,WUHU216HW,2013-02-08 13:52:00,
2013-02-08 08:57:00,16.2,11.2,30.25,ESE,113,0.7,0.7,80,0.00,,,0.00,WUHU216HW,2013-02-08 13:57:00,
2013-02-08 09:02:00,16.2,10.8,30.25,ESE,113,1.0,1.3,79,0.00,,,0.00,WUHU216HW,2013-02-08 14:02:00,
2013-02-08 09:07:00,16.2,10.8,30.24,SE,135,1.1,1.3,79,0.00,,,0.00,WUHU216HW,2013-02-08 14:07:00,
2013-02-08 09:12:00,16.2,11.2,30.24,ESE,113,2.0,2.0,80,0.00,,,0.00,WUHU216HW,2013-02-08 14:12:00,
2013-02-08 09:17:00,16.2,11.2,30.24,ESE,113,0.2,2.0,80,0.00,,,0.00,WUHU216HW,2013-02-08 14:17:00,
2013-02-08 09:22:00,16.4,11.0,30.24,ESE,113,0.7,1.1,79,0.00,,,0.00,WUHU216HW,2013-02-08 14:22:00,
2013-02-08 09:27:00,16.4,11.3,30.24,ESE,113,0.4,1.1,80,0.00,,,0.00,WUHU216HW,2013-02-08 14:27:00,
2013-02-08 09:32:00,16.7,11.6,30.24,ESE,113,0.4,1.1,80,0.00,,,0.00,WUHU216HW,2013-02-08 14:32:00,
2013-02-08 09:37:00,16.7,11.6,30.24,ESE,113,0.9,1.1,80,0.00,,,0.00,WUHU216HW,2013-02-08 14:37:00,
2013-02-08 09:42:00,16.9,11.8,30.23,SE,135,0.8,1.1,80,0.00,,,0.00,WUHU216HW,2013-02-08 14:42:00,
2013-02-08 09:47:00,16.9,11.5,30.23,ESE,113,0.3,0.9,79,0.00,,,0.00,WUHU216HW,2013-02-08 14:47:00,
2013-02-08 09:52:00,16.9,11.5,30.23,ESE,113,1.8,1.8,79,0.00,,,0.00,WUHU216HW,2013-02-08 14:52:00,
2013-02-08 09:58:00,16.9,11.5,30.23,ESE,122,2.3,2.5,79,0.00,,,0.00,WUHU216HW,2013-02-08 14:58:00,
2013-02-08 10:03:00,16.9,11.8,30.23,SE,135,3.4,3.4,80,0.00,,,0.00,WUHU216HW,2013-02-08 15:03:00,
2013-02-08 10:08:00,16.9,11.5,30.23,SE,135,1.3,3.4,79,0.00,,,0.00,WUHU216HW,2013-02-08 15:08:00,
2013-02-08 10:13:00,16.7,11.4,30.23,ESE,113,2.7,2.7,79,0.00,,,0.00,WUHU216HW,2013-02-08 15:13:00,
2013-02-08 10:18:00,16.7,11.6,30.23,SE,125,2.5,3.6,80,0.00,,,0.00,WUHU216HW,2013-02-08 15:18:00,
2013-02-08 10:23:00,16.7,11.6,30.23,ESE,113,2.1,3.6,80,0.00,,,0.00,WUHU216HW,2013-02-08 15:23:00,
2013-02-08 10:28:00,16.7,11.4,30.23,ESE,113,3.4,3.4,79,0.00,,,0.00,WUHU216HW,2013-02-08 15:28:00,
2013-02-08 10:33:00,16.7,11.6,30.23,ESE,113,3.3,3.4,80,0.00,,,0.00,WUHU216HW,2013-02-08 15:33:00,
2013-02-08 10:38:00,16.7,11.4,30.23,SE,135,1.6,3.4,79,0.00,,,0.00,WUHU216HW,2013-02-08 15:38:00,
2013-02-08 10:43:00,16.9,11.5,30.22,ESE,113,1.8,3.1,79,0.00,,,0.00,WUHU216HW,2013-02-08 15:43:00,
2013-02-08 10:48:00,17.1,12.0,30.22,ESE,113,1.5,3.1,80,0.00,,,0.00,WUHU216HW,2013-02-08 15:48:00,
2013-02-08 10:53:00,17.3,11.8,30.23,SE,135,2.8,3.1,79,0.00,,,0.00,WUHU216HW,2013-02-08 15:53:00,
2013-02-08 10:58:00,17.3,11.8,30.22,ESE,113,2.2,3.1,79,0.00,,,0.00,WUHU216HW,2013-02-08 15:58:00,
2013-02-08 11:03:00,17.3,11.8,30.22,ESE,113,1.3,2.7,79,0.00,,,0.00,WUHU216HW,2013-02-08 16:03:00,
2013-02-08 11:08:00,17.3,12.1,30.22,ESE,113,0.4,2.7,80,0.00,,,0.00,WUHU216HW,2013-02-08 16:08:00,
2013-02-08 11:13:00,17.3,12.1,30.22,East,99,1.0,1.6,80,0.00,,,0.00,WUHU216HW,2013-02-08 16:13:00,
2013-02-08 11:18:00,17.5,12.2,30.22,ESE,113,1.1,2.5,80,0.00,,,0.00,WUHU216HW,2013-02-08 16:18:00,
2013-02-08 11:23:00,17.5,12.2,30.21,ESE,113,1.1,2.5,80,0.00,,,0.00,WUHU216HW,2013-02-08 16:23:00,
2013-02-08 11:28:00,17.6,12.2,30.20,ESE,122,0.6,1.1,79,0.00,,,0.00,WUHU216HW,2013-02-08 16:28:00,
2013-02-08 11:33:00,17.5,12.0,30.20,ESE,113,0.9,1.8,79,0.00,,,0.00,WUHU216HW,2013-02-08 16:33:00,
2013-02-08 11:38:00,17.5,12.0,30.20,ESE,113,0.4,1.8,79,0.00,,,0.00,WUHU216HW,2013-02-08 16:38:00,
2013-02-08 11:43:00,17.6,12.2,30.20,NNE,23,0.6,1.1,79,0.00,,,0.00,WUHU216HW,2013-02-08 16:43:00,
2013-02-08 11:48:00,17.6,12.2,30.19,NE,45,0.7,1.1,79,0.00,,,0.00,WUHU216HW,2013-02-08 16:48:00,
2013-02-08 11:53:00,17.6,12.2,30.19,NE,45,0.9,0.9,79,0.00,,,0.00,WUHU216HW,2013-02-08 16:53:00,
2013-02-08 11:58:00,17.6,12.4,30.19,NE,45,0.6,0.9,80,0.00,,,0.00,WUHU216HW,2013-02-08 16:58:00,
2013-02-08 12:03:00,17.6,12.4,30.18,NE,45,0.6,0.7,80,0.00,,,0.00,WUHU216HW,2013-02-08 17:03:00,
2013-02-08 12:08:00,17.8,12.6,30.18,NE,45,0.4,0.7,80,0.00,,,0.00,WUHU216HW,2013-02-08 17:08:00,
2013-02-08 12:13:00,17.8,12.6,30.17,NE,45,1.1,1.1,80,0.00,,,0.00,WUHU216HW,2013-02-08 17:13:00,
2013-02-08 12:18:00,17.8,12.9,30.17,NNE,23,2.5,2.5,81,0.00,,,0.00,WUHU216HW,2013-02-08 17:18:00,
2013-02-08 12:23:00,17.6,12.7,30.17,NE,45,1.1,2.5,81,0.00,,,0.00,WUHU216HW,2013-02-08 17:23:00,
2013-02-08 12:29:00,17.5,12.5,30.16,NE,45,0.8,2.0,81,0.00,,,0.00,WUHU216HW,2013-02-08 17:29:00,
2013-02-08 12:34:00,17.5,12.5,30.16,NE,45,1.2,1.3,81,0.00,,,0.00,WUHU216HW,2013-02-08 17:34:00,
2013-02-08 12:39:00,17.5,12.8,30.16,NNE,29,1.3,2.5,82,0.00,,,0.00,WUHU216HW,2013-02-08 17:39:00,
2013-02-08 12:44:00,17.5,12.5,30.15,ESE,113,0.4,2.5,81,0.00,,,0.00,WUHU216HW,2013-02-08 17:44:00,
2013-02-08 12:49:00,17.6,12.7,30.14,ENE,68,0.8,1.1,81,0.00,,,0.00,WUHU216HW,2013-02-08 17:49:00,
2013-02-08 12:54:00,17.6,12.7,30.14,ENE,68,0.8,1.1,81,0.00,,,0.00,WUHU216HW,2013-02-08 17:54:00,
2013-02-08 12:59:00,17.6,12.7,30.14,NE,45,0.6,1.1,81,0.00,,,0.00,WUHU216HW,2013-02-08 17:59:00,
2013-02-08 13:04:00,17.6,12.4,30.14,NE,45,0.6,1.1,80,0.00,,,0.00,WUHU216HW,2013-02-08 18:04:00,
2013-02-08 13:09:00,17.8,12.6,30.13,NE,45,0.9,1.1,80,0.00,,,0.00,WUHU216HW,2013-02-08 18:09:00,
2013-02-08 13:14:00,18.0,12.8,30.13,NE,45,0.4,0.9,80,0.00,,,0.00,WUHU216HW,2013-02-08 18:14:00,
2013-02-08 13:19:00,18.2,13.0,30.12,ENE,68,0.4,0.7,80,0.00,,,0.00,WUHU216HW,2013-02-08 18:19:00,
2013-02-08 13:24:00,18.4,13.1,30.12,East,90,0.7,0.7,80,0.00,,,0.00,WUHU216HW,2013-02-08 18:24:00,
2013-02-08 13:29:00,18.4,13.1,30.11,ENE,68,0.7,1.1,80,0.00,,,0.00,WUHU216HW,2013-02-08 18:29:00,
2013-02-08 13:34:00,18.4,13.1,30.11,ENE,68,0.3,1.1,80,0.00,,,0.00,WUHU216HW,2013-02-08 18:34:00,
2013-02-08 13:39:00,18.4,13.1,30.11,ENE,68,1.1,1.1,80,0.00,,,0.00,WUHU216HW,2013-02-08 18:39:00,
2013-02-08 13:44:00,18.5,13.6,30.11,ENE,68,0.4,1.1,81,0.00,,,0.00,WUHU216HW,2013-02-08 18:44:00,
2013-02-08 13:49:00,18.5,13.6,30.10,NE,53,1.0,1.6,81,0.00,,,0.00,WUHU216HW,2013-02-08 18:49:00,
2013-02-08 13:54:00,18.7,13.5,30.10,ENE,68,0.4,1.6,80,0.00,,,0.00,WUHU216HW,2013-02-08 18:54:00,
2013-02-08 13:59:00,18.7,13.8,30.09,ENE,73,0.9,1.1,81,0.00,,,0.00,WUHU216HW,2013-02-08 18:59:00,
2013-02-08 14:04:00,18.9,14.0,30.09,ESE,113,1.1,2.0,81,0.00,,,0.00,WUHU216HW,2013-02-08 19:04:00,
2013-02-08 14:09:00,18.9,14.0,30.08,ESE,113,0.4,2.0,81,0.00,,,0.00,WUHU216HW,2013-02-08 19:09:00,
2013-02-08 14:14:00,19.1,14.1,30.08,NE,54,0.9,1.3,81,0.00,,,0.00,WUHU216HW,2013-02-08 19:14:00,
2013-02-08 14:19:00,19.1,14.1,30.08,ESE,113,1.0,1.3,81,0.00,,,0.00,WUHU216HW,2013-02-08 19:19:00,
2013-02-08 14:24:00,19.1,14.1,30.07,ENE,70,1.0,1.8,81,0.00,,,0.00,WUHU216HW,2013-02-08 19:24:00,
2013-02-08 14:29:00,19.3,14.6,30.07,ESE,105,1.8,2.0,82,0.00,,,0.00,WUHU216HW,2013-02-08 19:29:00,
2013-02-08 14:34:00,19.4,14.5,30.07,ENE,68,2.0,2.0,81,0.00,,,0.00,WUHU216HW,2013-02-08 19:34:00,
2013-02-08 14:39:00,19.8,14.6,30.07,ESE,113,1.9,2.0,80,0.00,,,0.00,WUHU216HW,2013-02-08 19:39:00,
2013-02-08 14:44:00,19.8,14.6,30.07,SE,135,1.8,2.0,80,0.00,,,0.00,WUHU216HW,2013-02-08 19:44:00,
2013-02-08 14:49:00,19.8,14.6,30.06,East,90,1.1,2.2,80,0.00,,,0.00,WUHU216HW,2013-02-08 19:49:00,
2013-02-08 14:54:00,19.8,14.6,30.06,NE,45,1.1,2.2,80,0.00,,,0.00,WUHU216HW,2013-02-08 19:54:00,
2013-02-08 14:59:00,19.8,14.6,30.06,ESE,113,1.6,2.2,80,0.00,,,0.00,WUHU216HW,2013-02-08 19:59:00,
2013-02-08 15:04:00,19.8,14.3,30.05,ENE,68,2.5,2.5,79,0.00,,,0.00,WUHU216HW,2013-02-08 20:04:00,
2013-02-08 15:09:00,19.8,14.3,30.05,ENE,68,2.0,3.4,79,0.00,,,0.00,WUHU216HW,2013-02-08 20:09:00,
2013-02-08 15:14:00,19.8,14.3,30.05,SE,135,1.6,3.4,79,0.00,,,0.00,WUHU216HW,2013-02-08 20:14:00,
2013-02-08 15:19:00,19.8,14.3,30.04,East,90,4.0,4.7,79,0.00,,,0.00,WUHU216HW,2013-02-08 20:19:00,
2013-02-08 15:24:00,19.6,14.4,30.04,ESE,113,3.6,4.7,80,0.00,,,0.00,WUHU216HW,2013-02-08 20:24:00,
2013-02-08 15:29:00,19.6,14.4,30.04,ESE,113,1.1,4.7,80,0.00,,,0.00,WUHU216HW,2013-02-08 20:29:00,
2013-02-08 15:34:00,19.6,14.4,30.05,ENE,68,2.5,5.6,80,0.00,,,0.00,WUHU216HW,2013-02-08 20:34:00,
2013-02-08 15:39:00,19.6,14.1,30.04,ESE,105,1.7,5.6,79,0.00,,,0.00,WUHU216HW,2013-02-08 20:39:00,
2013-02-08 15:44:00,19.6,14.1,30.04,ESE,113,2.2,3.6,79,0.00,,,0.00,WUHU216HW,2013-02-08 20:44:00,
2013-02-08 15:49:00,19.8,14.0,30.04,ESE,113,3.9,4.9,78,0.00,,,0.00,WUHU216HW,2013-02-08 20:49:00,
2013-02-08 15:54:00,19.8,14.0,30.03,ENE,74,2.3,4.9,78,0.00,,,0.00,WUHU216HW,2013-02-08 20:54:00,
2013-02-08 15:59:00,19.6,14.1,30.03,East,90,3.8,4.0,79,0.00,,,0.00,WUHU216HW,2013-02-08 20:59:00,
2013-02-08 16:04:00,19.3,14.0,30.03,ESE,113,5.5,6.3,80,0.00,,,0.00,WUHU216HW,2013-02-08 21:04:00,
2013-02-08 16:09:00,18.7,13.8,30.03,ESE,113,4.1,6.3,81,0.00,,,0.00,WUHU216HW,2013-02-08 21:09:00,
2013-02-08 16:14:00,18.7,14.0,30.03,East,100,2.7,5.1,82,0.00,,,0.00,WUHU216HW,2013-02-08 21:14:00,
2013-02-08 16:19:00,18.5,13.9,30.02,East,90,2.5,4.0,82,0.00,,,0.00,WUHU216HW,2013-02-08 21:19:00,
2013-02-08 16:24:00,18.4,13.7,30.02,SE,135,1.8,4.0,82,0.00,,,0.00,WUHU216HW,2013-02-08 21:24:00,
2013-02-08 16:29:00,18.4,13.7,30.02,ESE,116,2.1,3.1,82,0.00,,,0.00,WUHU216HW,2013-02-08 21:29:00,
2013-02-08 16:34:00,18.4,13.7,30.01,ESE,113,3.2,3.4,82,0.00,,,0.00,WUHU216HW,2013-02-08 21:34:00,
2013-02-08 16:39:00,18.2,13.5,30.01,ESE,113,1.1,3.4,82,0.00,,,0.00,WUHU216HW,2013-02-08 21:39:00,
2013-02-08 16:44:00,18.0,13.3,30.01,ESE,113,1.2,1.8,82,0.00,,,0.00,WUHU216HW,2013-02-08 21:44:00,
2013-02-08 16:49:00,18.0,13.3,30.02,ESE,113,1.6,2.0,82,0.00,,,0.00,WUHU216HW,2013-02-08 21:49:00,
2013-02-08 16:54:00,17.8,13.4,30.01,ESE,113,1.3,2.0,83,0.00,,,0.00,WUHU216HW,2013-02-08 21:54:00,
2013-02-08 16:59:00,17.6,13.2,30.01,ESE,113,1.5,1.8,83,0.00,,,0.00,WUHU216HW,2013-02-08 21:59:00,
2013-02-08 17:04:00,17.8,13.4,30.01,ESE,113,1.3,1.8,83,0.00,,,0.00,WUHU216HW,2013-02-08 22:04:00,
2013-02-08 17:11:00,17.8,13.4,30.01,SE,135,1.6,1.6,83,0.00,,,0.00,WUHU216HW,2013-02-08 22:11:00,
2013-02-08 17:16:00,17.6,13.2,30.01,SE,135,3.8,3.8,83,0.00,,,0.00,WUHU216HW,2013-02-08 22:16:00,
2013-02-08 17:21:00,17.6,13.2,30.00,ESE,113,0.3,3.8,83,0.00,,,0.00,WUHU216HW,2013-02-08 22:21:00,
2013-02-08 17:26:00,17.6,13.2,30.00,ESE,113,0.3,0.9,83,0.00,,,0.00,WUHU216HW,2013-02-08 22:26:00,
2013-02-08 17:31:00,17.6,13.2,30.00,ESE,113,0.6,0.7,83,0.00,,,0.00,WUHU216HW,2013-02-08 22:31:00,
2013-02-08 17:36:00,17.6,13.2,30.00,ESE,113,0.6,0.7,83,0.00,,,0.00,WUHU216HW,2013-02-08 22:36:00,
2013-02-08 17:41:00,17.6,13.2,30.00,ESE,113,0.4,0.7,83,0.00,,,0.00,WUHU216HW,2013-02-08 22:41:00,
2013-02-08 17:46:00,17.5,13.1,30.00,ESE,113,0.4,0.4,83,0.00,,,0.00,WUHU216HW,2013-02-08 22:46:00,
2013-02-08 17:51:00,17.5,13.3,30.00,ESE,113,0.4,1.1,84,0.00,,,0.00,WUHU216HW,2013-02-08 22:51:00,
2013-02-08 17:56:00,17.5,13.3,29.99,ESE,113,0.4,1.1,84,0.00,,,0.00,WUHU216HW,2013-02-08 22:56:00,
2013-02-08 18:01:00,17.5,13.3,29.99,ESE,113,0.9,0.9,84,0.00,,,0.00,WUHU216HW,2013-02-08 23:01:00,
2013-02-08 18:06:00,17.5,13.3,29.99,ESE,113,1.1,1.6,84,0.00,,,0.00,WUHU216HW,2013-02-08 23:06:00,
2013-02-08 18:11:00,17.5,13.3,29.99,ESE,113,0.9,1.6,84,0.00,,,0.00,WUHU216HW,2013-02-08 23:11:00,
2013-02-08 18:16:00,17.5,13.3,29.99,ESE,113,1.1,1.6,84,0.00,,,0.00,WUHU216HW,2013-02-08 23:16:00,
2013-02-08 18:21:00,17.5,13.3,29.99,NE,45,0.4,1.8,84,0.00,,,0.00,WUHU216HW,2013-02-08 23:21:00,
2013-02-08 18:26:00,17.6,13.5,29.99,NE,45,0.4,1.8,84,0.00,,,0.00,WUHU216HW,2013-02-08 23:26:00,
2013-02-08 18:31:00,17.6,13.5,29.98,NE,45,1.8,1.8,84,0.00,,,0.00,WUHU216HW,2013-02-08 23:31:00,
2013-02-08 18:36:00,17.5,13.3,29.98,ENE,57,1.7,1.8,84,0.00,,,0.00,WUHU216HW,2013-02-08 23:36:00,
2013-02-08 18:41:00,17.5,13.3,29.98,NE,45,1.2,1.8,84,0.00,,,0.00,WUHU216HW,2013-02-08 23:41:00,
2013-02-08 18:46:00,17.3,13.1,29.97,NE,45,0.9,1.8,84,0.00,,,0.00,WUHU216HW,2013-02-08 23:46:00,
2013-02-08 18:51:00,17.3,13.1,29.97,NE,45,1.6,1.8,84,0.00,,,0.00,WUHU216HW,2013-02-08 23:51:00,
2013-02-08 18:56:00,17.3,13.4,29.96,NE,45,2.0,2.7,85,0.00,,,0.00,WUHU216HW,2013-02-08 23:56:00,
2013-02-08 19:01:00,17.3,13.1,29.96,NE,45,1.6,2.7,84,0.00,,,0.00,WUHU216HW,2013-02-09 00:01:00,
2013-02-08 19:06:00,17.3,13.1,29.96,NE,45,1.9,2.5,84,0.00,,,0.00,WUHU216HW,2013-02-09 00:06:00,
2013-02-08 19:11:00,17.3,13.1,29.96,NE,45,1.8,2.0,84,0.00,,,0.00,WUHU216HW,2013-02-09 00:11:00,
2013-02-08 19:16:00,17.3,13.1,29.96,NE,45,1.6,1.8,84,0.00,,,0.00,WUHU216HW,2013-02-09 00:16:00,
2013-02-08 19:21:00,17.3,13.1,29.96,ENE,68,1.3,1.8,84,0.00,,,0.00,WUHU216HW,2013-02-09 00:21:00,
2013-02-08 19:26:00,17.3,13.1,29.96,ENE,68,1.7,1.8,84,0.00,,,0.00,WUHU216HW,2013-02-09 00:26:00,
2013-02-08 19:31:00,17.3,13.4,29.96,ENE,68,1.8,1.8,85,0.00,,,0.00,WUHU216HW,2013-02-09 00:31:00,
2013-02-08 19:36:00,17.5,13.6,29.96,ENE,68,1.1,1.8,85,0.00,,,0.00,WUHU216HW,2013-02-09 00:36:00,
2013-02-08 19:41:00,17.5,13.9,29.95,ENE,68,1.3,1.8,86,0.00,,,0.00,WUHU216HW,2013-02-09 00:41:00,
2013-02-08 19:46:00,17.6,14.0,29.95,ENE,68,0.8,1.8,86,0.00,,,0.00,WUHU216HW,2013-02-09 00:46:00,
2013-02-08 19:51:00,17.6,14.0,29.95,ENE,68,1.2,1.6,86,0.00,,,0.00,WUHU216HW,2013-02-09 00:51:00,
2013-02-08 19:56:00,17.5,13.9,29.94,ENE,68,1.8,1.8,86,0.00,,,0.00,WUHU216HW,2013-02-09 00:56:00,
2013-02-08 20:01:00,17.6,14.3,29.94,ENE,68,1.8,2.0,87,0.00,,,0.00,WUHU216HW,2013-02-09 01:01:00,
2013-02-08 20:06:00,17.6,14.3,29.94,ENE,68,1.9,2.0,87,0.00,,,0.00,WUHU216HW,2013-02-09 01:06:00,
2013-02-08 20:11:00,17.6,14.0,29.94,ENE,68,0.9,2.0,86,0.00,,,0.00,WUHU216HW,2013-02-09 01:11:00,
2013-02-08 20:16:00,17.6,14.0,29.94,ENE,68,1.5,1.8,86,0.00,,,0.00,WUHU216HW,2013-02-09 01:16:00,
2013-02-08 20:21:00,17.6,14.0,29.93,ENE,68,0.8,1.8,86,0.00,,,0.00,WUHU216HW,2013-02-09 01:21:00,
2013-02-08 20:26:00,17.6,14.0,29.93,ENE,68,1.1,1.8,86,0.00,,,0.00,WUHU216HW,2013-02-09 01:26:00,
2013-02-08 20:31:00,17.6,14.0,29.93,ENE,68,1.1,1.8,86,0.00,,,0.00,WUHU216HW,2013-02-09 01:31:00,
2013-02-08 20:36:00,17.6,14.0,29.93,ENE,68,1.0,1.6,86,0.00,,,0.00,WUHU216HW,2013-02-09 01:36:00,
2013-02-08 20:41:00,17.6,14.0,29.93,ENE,68,1.8,2.0,86,0.00,,,0.00,WUHU216HW,2013-02-09 01:41:00,
2013-02-08 20:46:00,17.6,14.0,29.92,ENE,68,1.3,2.0,86,0.00,,,0.00,WUHU216HW,2013-02-09 01:46:00,
2013-02-08 20:51:00,17.6,14.0,29.92,ENE,68,1.8,1.8,86,0.00,,,0.00,WUHU216HW,2013-02-09 01:51:00,
2013-02-08 20:56:00,17.6,14.0,29.91,ENE,68,1.1,1.8,86,0.00,,,0.00,WUHU216HW,2013-02-09 01:56:00,
2013-02-08 21:01:00,17.6,14.0,29.91,ENE,68,0.7,1.1,86,0.00,,,0.00,WUHU216HW,2013-02-09 02:01:00,
2013-02-08 21:06:00,17.6,14.0,29.91,ENE,68,0.9,1.1,86,0.00,,,0.00,WUHU216HW,2013-02-09 02:06:00,
2013-02-08 21:11:00,17.6,14.0,29.91,ENE,68,0.9,0.9,86,0.00,,,0.00,WUHU216HW,2013-02-09 02:11:00,
2013-02-08 21:16:00,17.6,14.0,29.91,ENE,68,0.4,0.9,86,0.00,,,0.00,WUHU216HW,2013-02-09 02:16:00,
2013-02-08 21:21:00,17.6,14.0,29.90,ENE,68,0.4,0.9,86,0.00,,,0.00,WUHU216HW,2013-02-09 02:21:00,
2013-02-08 21:26:00,17.6,14.0,29.90,ENE,68,0.6,0.7,86,0.00,,,0.00,WUHU216HW,2013-02-09 02:26:00,
2013-02-08 21:31:00,17.6,14.0,29.89,ENE,68,0.4,0.7,86,0.00,,,0.00,WUHU216HW,2013-02-09 02:31:00,
2013-02-08 21:36:00,17.6,14.0,29.89,ENE,68,0.8,0.9,86,0.00,,,0.00,WUHU216HW,2013-02-09 02:36:00,
2013-02-08 21:41:00,17.6,14.0,29.89,ENE,68,0.7,0.9,86,0.00,,,0.00,WUHU216HW,2013-02-09 02:41:00,
2013-02-08 21:46:00,17.6,14.0,29.89,ENE,68,0.8,0.9,86,0.00,,,0.00,WUHU216HW,2013-02-09 02:46:00,
2013-02-08 21:51:00,17.6,14.3,29.88,ENE,68,0.6,1.1,87,0.00,,,0.00,WUHU216HW,2013-02-09 02:51:00,
2013-02-08 21:56:00,17.6,14.3,29.88,ENE,68,0.9,1.8,87,0.00,,,0.00,WUHU216HW,2013-02-09 02:56:00,
2013-02-08 22:01:00,17.6,14.3,29.87,ENE,68,1.1,1.8,87,0.00,,,0.00,WUHU216HW,2013-02-09 03:01:00,
2013-02-08 22:06:00,17.6,14.3,29.87,ENE,68,0.4,1.1,87,0.00,,,0.00,WUHU216HW,2013-02-09 03:06:00,
2013-02-08 22:11:00,17.8,14.5,29.87,ENE,68,0.8,1.3,87,0.00,,,0.00,WUHU216HW,2013-02-09 03:11:00,
2013-02-08 22:16:00,17.8,14.5,29.86,ENE,68,0.9,1.3,87,0.00,,,0.00,WUHU216HW,2013-02-09 03:16:00,
2013-02-08 22:21:00,17.6,14.0,29.86,ENE,68,0.8,1.3,86,0.00,,,0.00,WUHU216HW,2013-02-09 03:21:00,
2013-02-08 22:26:00,17.6,14.0,29.86,ENE,68,1.3,1.3,86,0.00,,,0.00,WUHU216HW,2013-02-09 03:26:00,
2013-02-08 22:31:00,17.6,14.0,29.85,ENE,68,0.4,1.3,86,0.00,,,0.00,WUHU216HW,2013-02-09 03:31:00,
2013-02-08 22:36:00,17.6,14.0,29.84,ENE,68,0.4,1.1,86,0.00,,,0.00,WUHU216HW,2013-02-09 03:36:00,
2013-02-08 22:41:00,17.6,14.0,29.84,ENE,68,0.4,0.4,86,0.00,,,0.00,WUHU216HW,2013-02-09 03:41:00,
2013-02-08 22:46:00,17.6,14.0,29.84,ENE,68,0.4,1.1,86,0.00,,,0.00,WUHU216HW,2013-02-09 03:46:00,
2013-02-08 22:51:00,17.6,14.0,29.83,ENE,68,0.8,1.3,86,0.00,,,0.00,WUHU216HW,2013-02-09 03:51:00,
2013-02-08 22:56:00,17.6,14.0,29.83,ENE,68,0.7,1.3,86,0.00,,,0.00,WUHU216HW,2013-02-09 03:56:00,
2013-02-08 23:01:00,17.6,14.0,29.83,ENE,68,0.2,1.3,86,0.00,,,0.00,WUHU216HW,2013-02-09 04:01:00,
2013-02-08 23:07:00,17.6,14.0,29.82,ENE,68,1.1,1.1,86,0.00,,,0.00,WUHU216HW,2013-02-09 04:07:00,
2013-02-08 23:12:00,17.6,14.0,29.82,ENE,68,0.4,1.3,86,0.00,,,0.00,WUHU216HW,2013-02-09 04:12:00,
2013-02-08 23:17:00,17.6,14.0,29.82,ENE,68,0.9,1.3,86,0.00,,,0.00,WUHU216HW,2013-02-09 04:17:00,
2013-02-08 23:22:00,17.6,14.0,29.82,ENE,68,0.7,0.9,86,0.00,,,0.00,WUHU216HW,2013-02-09 04:22:00,
2013-02-08 23:27:00,17.8,14.2,29.82,ENE,68,1.3,1.3,86,0.00,,,0.00,WUHU216HW,2013-02-09 04:27:00,
2013-02-08 23:32:00,17.6,14.0,29.81,ENE,68,1.1,1.3,86,0.00,,,0.00,WUHU216HW,2013-02-09 04:32:00,
2013-02-08 23:37:00,17.6,13.8,29.81,ENE,68,1.1,1.3,85,0.00,,,0.00,WUHU216HW,2013-02-09 04:37:00,
2013-02-08 23:42:00,17.5,13.6,29.81,ENE,68,0.9,1.3,85,0.00,,,0.00,WUHU216HW,2013-02-09 04:42:00,
2013-02-08 23:47:00,17.3,13.4,29.81,ENE,68,1.6,1.6,85,0.00,,,0.00,WUHU216HW,2013-02-09 04:47:00,
2013-02-08 23:52:00,16.9,13.1,29.80,ENE,68,1.9,2.7,85,0.00,,,0.00,WUHU216HW,2013-02-09 04:52:00,
2013-02-08 23:57:00,16.9,13.1,29.80,ENE,68,1.3,2.7,85,0.00,,,0.00,WUHU216HW,2013-02-09 04:57:00,